Location: ???????
(55.9142°N, 37.8256°E)
Time: 11:12:29
(UTC+00:00)

NOAA 11 - Pass Details

Date: 14 April 2024
Orbit: 833 x 848 km, 98.5° (Epoch: 18 May)

Event Time Altitude Azimuth Distance (km) Brightness Sun altitude
Rises 01:17:09 0° 16° (NNE) 3,398 8.2 -9.4°
Reaches altitude 10° 01:19:31 10° 17° (NNE) 2,461 7.4 -9.1°
Maximum altitude 01:25:00 84° 106° (ESE) 851 4.3 -8.5°
Drops below altitude 10° 01:30:27 10° 195° (SSW) 2,453 6.2 -7.8°
Sets 01:32:48 0° 196° (SSW) 3,385 6.9 -7.5°
